TimeEST,TemperatureF,Dew PointF,Humidity,Sea Level PressureIn,VisibilityMPH,Wind Direction,Wind SpeedMPH,Gust SpeedMPH,PrecipitationIn,Events,Conditions,WindDirDegrees,DateUTC
12:54 AM,32.0,23.0,69,30.30,10.0,WSW,3.5,-,N/A,,Clear,240,2013-01-15 05:54:00
1:54 AM,30.9,23.0,72,30.28,10.0,Calm,Calm,-,N/A,,Clear,0,2013-01-15 06:54:00
3:54 AM,28.0,21.9,78,30.27,10.0,Calm,Calm,-,N/A,,Clear,0,2013-01-15 08:54:00
4:54 AM,26.1,21.0,81,30.24,10.0,Calm,Calm,-,N/A,,Clear,0,2013-01-15 09:54:00
5:54 AM,25.0,19.9,81,30.28,10.0,South,4.6,-,N/A,,Clear,180,2013-01-15 10:54:00
6:54 AM,27.0,21.9,81,30.30,10.0,SSW,3.5,-,N/A,,Overcast,200,2013-01-15 11:54:00
7:54 AM,28.0,23.0,81,30.31,10.0,Calm,Calm,-,N/A,,Overcast,0,2013-01-15 12:54:00
8:54 AM,30.0,23.0,75,30.33,10.0,Calm,Calm,-,N/A,,Overcast,0,2013-01-15 13:54:00
9:54 AM,30.9,23.0,72,30.35,10.0,SW,3.5,-,N/A,,Overcast,220,2013-01-15 14:54:00
10:54 AM,33.1,23.0,66,30.33,10.0,West,3.5,-,N/A,,Overcast,270,2013-01-15 15:54:00
11:54 AM,33.1,21.0,61,30.31,10.0,WNW,3.5,-,N/A,,Overcast,290,2013-01-15 16:54:00
12:54 PM,33.1,21.0,61,30.29,10.0,NW,4.6,-,N/A,,Overcast,320,2013-01-15 17:54:00
1:27 PM,33.8,21.2,60,30.26,10.0,WNW,5.8,-,N/A,,Overcast,290,2013-01-15 18:27:00
1:54 PM,33.1,19.9,59,30.29,10.0,Calm,Calm,-,N/A,,Overcast,0,2013-01-15 18:54:00
2:33 PM,33.8,19.4,56,30.24,10.0,NNW,3.5,-,N/A,,Overcast,340,2013-01-15 19:33:00
2:54 PM,34.0,19.9,56,30.26,10.0,Calm,Calm,-,N/A,,Overcast,0,2013-01-15 19:54:00
3:28 PM,33.8,21.2,60,30.25,10.0,Calm,Calm,-,N/A,,Overcast,0,2013-01-15 20:28:00
3:54 PM,33.1,19.9,59,30.29,10.0,West,3.5,-,N/A,,Mostly Cloudy,260,2013-01-15 20:54:00
4:01 PM,33.8,19.4,56,30.26,10.0,West,3.5,-,N/A,,Scattered Clouds,280,2013-01-15 21:01:00
4:54 PM,32.0,19.9,61,30.29,10.0,Calm,Calm,-,N/A,,Clear,0,2013-01-15 21:54:00
5:54 PM,30.9,19.0,61,30.31,10.0,Calm,Calm,-,N/A,,Clear,0,2013-01-15 22:54:00
7:54 PM,30.0,19.0,64,30.29,10.0,Calm,Calm,-,N/A,,Clear,0,2013-01-16 00:54:00
8:54 PM,28.9,19.0,67,30.27,10.0,Calm,Calm,-,N/A,,Clear,0,2013-01-16 01:54:00
9:54 PM,28.9,21.0,72,30.25,10.0,Calm,Calm,-,N/A,,Clear,0,2013-01-16 02:54:00
10:54 PM,28.0,21.0,75,30.25,10.0,Calm,Calm,-,N/A,,Clear,0,2013-01-16 03:54:00
11:54 PM,28.0,21.9,78,30.22,10.0,Calm,Calm,-,N/A,,Clear,0,2013-01-16 04:54:00